[[{"header":{"parameterUnit":"m.s-1","parameterCategory":1,"la1":30.2991,"la2":30.254,"lo1":-89.0895,"lo2":-89.0444,"dy":0.0017,"dx":0.0017,"nx":28,"ny":28,"refTime":"2024-03-31T09:00:00:Z","depth":0,"parameterNumber":2,"parameterNumberName":"U-component_of_WINDS"},"data":[0,0,0,0,0,0,0,0,0,0,0,0,0,0,0,0,0,0,0,0,0,0,0,0,0,0,0,0,0,0,0,0,0,0,0,0,0,0,0,0,0,0,0,0,0,0,0,0,0,0,0,0,0,0,0,0,0,0,-0.933,-0.933,0,-0.9319,-0.9319,-0.9319,-0.9307,-0.9307,-0.9307,-0.9306,-0.9295,-0.9295,-0.9295,0,0,0,0,0,0,0,0,0,0,0,0,0,-0.9344,-0.9344,-0.933,-0.933,-0.933,-0.9319,-0.9319,-0.9318,-0.9307,-0.9307,-0.9307,-0.9306,-0.9296,-0.9295,-0.9295,0,0,0,0,0,0,0,0,0,0,0,0,0,-0.9336,-0.9344,-0.9331,-0.9323,-0.9322,-0.9319,-0.9319,-0.9318,-0.9307,-0.9307,-0.9307,-0.9306,-0.9296,-0.9295,-0.9295,-0.9299,0,0,-0.9295,-0.9294,0,0,0,0,0,0,0,0,-0.9336,-0.9335,-0.9324,-0.9324,-0.9323,-0.9314,-0.9319,-0.9312,-0.9307,-0.9313,-0.9306,-0.9306,-0.9302,-0.9301,-0.93,-0.9298,-0.9298,-0.9294,-0.9294,-0.9294,-0.9294,0,0,0,0,0,0,0,-0.9337,-0.9336,-0.9326,-0.9324,-0.9323,-0.9321,-0.9319,-0.9318,-0.9309,-0.9312,-0.9311,-0.931,-0.9301,-0.93,-0.9299,-0.9297,-0.9294,-0.9294,-0.9294,-0.9294,-0.9298,-0.9299,0,0,0,0,0,0,-0.9339,-0.9336,-0.9326,-0.9326,-0.9329,-0.9321,-0.9319,-0.9317,-0.9309,-0.9307,-0.931,-0.931,-0.93,-0.9299,-0.9299,-0.9302,-0.9294,-0.9294,-0.9294,-0.9298,-0.9298,-0.9299,0,0,0,0,0,0,-0.9339,-0.9338,-0.9327,-0.9331,-0.9329,-0.9321,-0.9319,-0.9317,-0.9315,-0.9307,-0.9306,-0.931,-0.93,-0.9299,-0.9299,-0.9302,-0.9294,-0.9294,-0.9298,-0.9298,-0.9298,-0.9309,0,0,0,0,0,0,-0.9339,-0.9338,-0.9339,-0.9331,-0.9329,-0.9326,-0.9319,-0.9317,-0.9315,-0.9314,-0.9307,-0.9305,-0.93,-0.9299,-0.9298,-0.9301,-0.9294,-0.9297,-0.9298,-0.9298,-0.9308,-0.931,-0.9311,0,0,0,0,0,-0.934,-0.9342,-0.9339,-0.9338,-0.933,-0.9327,-0.9326,-0.9319,-0.9315,-0.9316,-0.9311,-0.9306,-0.9301,-0.9299,-0.9298,-0.9301,-0.9297,-0.9298,-0.9298,-0.9308,-0.9309,-0.9311,0,0,0,0,0,0,-0.9351,-0.9341,-0.9337,-0.9337,-0.9333,-0.9325,-0.9326,-0.9321,-0.9318,-0.9317,-0.9309,-0.9307,-0.9308,-0.9304,-0.9302,-0.9304,-0.9299,-0.9299,-0.9306,-0.9308,-0.9309,-0.9309,-0.9293,0,0,0,0,0,-0.9354,-0.9352,-0.9343,-0.9344,-0.9342,-0.9334,-0.9333,-0.9328,-0.9323,-0.9321,-0.9316,-0.9312,-0.931,-0.9309,-0.9306,-0.9308,-0.9306,-0.9309,-0.9311,-0.9312,-0.9312,-0.9313,-0.9314,-0.93,-0.93,-0.93,0,0,-0.9359,-0.9353,-0.9352,-0.9346,-0.9342,-0.9341,-0.9333,-0.9331,-0.933,-0.9321,-0.932,-0.9317,-0.9312,-0.9312,-0.9312,-0.9309,-0.9316,-0.9312,-0.9313,-0.9313,-0.9314,-0.9315,-0.9316,-0.9301,-0.9301,-0.9301,0,0,-0.9368,-0.9363,-0.9363,-0.9359,-0.9353,-0.9348,-0.9348,-0.9341,-0.9338,-0.9337,-0.933,-0.9329,-0.9325,-0.9322,-0.932,-0.9327,-0.9322,-0.9327,-0.9333,-0.9334,-0.9335,-0.9336,-0.9339,-0.934,-0.9327,-0.9327,-0.9327,0,-0.9375,-0.9372,-0.9364,-0.9363,-0.936,-0.9352,-0.9352,-0.9349,-0.9343,-0.9341,-0.9338,-0.9333,-0.9329,-0.9329,-0.9331,-0.933,-0.933,-0.9327,-0.9335,-0.9336,-0.9337,-0.9339,-0.9341,-0.9328,-0.9328,-0.9328,-0.9328,0,-0.9381,-0.9379,-0.938,-0.9373,-0.9371,-0.9371,-0.9364,-0.9362,-0.9358,-0.9353,-0.9352,-0.9347,-0.9344,-0.9343,-0.9339,-0.9343,-0.9341,-0.9337,-0.9331,-0.9339,-0.9341,-0.9342,-0.9329,-0.9328,-0.9328,-0.9328,0,0,-0.9396,-0.9386,-0.9386,-0.9383,-0.9376,-0.9374,-0.9374,-0.937,-0.9369,-0.9365,-0.9365,-0.9362,-0.9358,-0.9355,-0.9351,-0.9351,-0.9358,-0.9347,-0.9347,-0.9349,-0.9362,-0.9365,-0.9366,-0.9355,-0.9355,-0.9355,-0.9362,0,-0.9404,-0.9402,-0.9395,-0.9395,-0.9393,-0.9385,-0.9385,-0.938,-0.9376,-0.9374,-0.937,-0.9368,-0.9363,-0.9361,-0.9362,-0.9357,-0.936,-0.9356,-0.9354,-0.9354,-0.9355,-0.9367,-0.937,-0.9377,-0.9363,-0.9363,-0.9363,0,-0.9412,-0.9408,-0.9408,-0.9401,-0.94,-0.9399,-0.9395,-0.9393,-0.9389,-0.9385,-0.9383,-0.9377,-0.9377,-0.9372,-0.9371,-0.9369,-0.9367,-0.9365,-0.9365,-0.9365,-0.9359,-0.9367,-0.9379,-0.9381,-0.9364,-0.9364,-0.9364,0,-0.9423,-0.9418,-0.9417,-0.9415,-0.9406,-0.9406,-0.9403,-0.9398,-0.9396,-0.9393,-0.9391,-0.9388,-0.9386,-0.9384,-0.9378,-0.9375,-0.9378,-0.9373,-0.9376,-0.9376,-0.9377,-0.9377,-0.9389,-0.9376,-0.9376,-0.9376,-0.9376,0,-0.9432,-0.9432,-0.9422,-0.9421,-0.9422,-0.9414,-0.9414,-0.941,-0.9406,-0.9405,-0.9398,-0.9397,-0.9389,-0.9388,-0.9383,-0.9383,-0.9383,-0.938,-0.9379,-0.9381,-0.9381,-0.938,-0.9379,-0.9376,-0.9376,-0.9376,-0.9376,0,-0.9444,-0.9437,-0.9436,-0.9428,-0.9426,-0.9427,-0.942,-0.942,-0.9415,-0.9414,-0.9413,-0.9406,-0.9404,-0.9397,-0.9394,-0.9391,-0.9392,-0.939,-0.9394,-0.9393,-0.9396,-0.9396,-0.9408,-0.941,-0.9396,-0.9396,-0.9396,0,-0.945,-0.945,-0.9442,-0.9441,-0.9438,-0.9435,-0.9433,-0.9426,-0.9424,-0.9419,-0.9419,-0.9416,-0.9413,-0.941,-0.9405,-0.9402,-0.94,-0.9404,-0.9399,-0.9401,-0.94,-0.94,-0.94,-0.9406,-0.9406,-0.9406,-0.9406,0,-0.9462,-0.9459,-0.9456,-0.9451,-0.9449,-0.9445,-0.9442,-0.9441,-0.9433,-0.9431,-0.9429,-0.9426,-0.9423,-0.942,-0.9416,-0.9413,-0.9408,-0.9408,-0.9408,-0.941,-0.9412,-0.9411,-0.9397,-0.9407,-0.9407,-0.9407,-0.9407,-0.9407,-0.9472,-0.9471,-0.9465,-0.9462,-0.9458,-0.9455,-0.9454,-0.9449,-0.9447,-0.9442,-0.9438,-0.9436,-0.9432,-0.9426,-0.9424,-0.9422,-0.942,-0.942,-0.9421,-0.9421,-0.9422,-0.9412,-0.9422,-0.9421,-0.9421,-0.9421,-0.9421,0,-0.9483,-0.9479,-0.9476,-0.947,-0.9468,-0.9463,-0.9459,-0.9457,-0.9455,-0.9451,-0.9448,-0.9446,-0.9443,-0.9437,-0.9434,-0.9434,-0.9432,-0.9434,-0.9434,-0.9433,-0.9424,-0.9424,-0.9436,-0.9436,-0.9436,-0.9436,-0.9436,-0.9436,-0.9488,-0.9487,-0.9483,-0.948,-0.9476,-0.9474,-0.9472,-0.9468,-0.9465,-0.9462,-0.946,-0.9456,-0.9451,-0.9448,-0.9445,-0.9444,-0.9443,-0.9446,-0.9443,-0.9435,-0.9434,-0.9433,-0.9432,-0.9446,-0.9446,-0.9452,-0.9453,-0.9453]},{"header":{"parameterUnit":"m.s-1","parameterCategory":1,"la1":30.2991,"la2":30.254,"lo1":-89.0895,"lo2":-89.0444,"dy":0.0017,"dx":0.0017,"nx":28,"ny":28,"refTime":"2024-03-31T09:00:00:Z","depth":0,"parameterNumber":3,"parameterNumberName":"V-component_of_WINDS"},"data":[0,0,0,0,0,0,0,0,0,0,0,0,0,0,0,0,0,0,0,0,0,0,0,0,0,0,0,0,0,0,0,0,0,0,0,0,0,0,0,0,0,0,0,0,0,0,0,0,0,0,0,0,0,0,0,0,0,0,5.4835,5.4836,0,5.4941,5.4942,5.4944,5.4891,5.4888,5.4886,5.4883,5.4987,5.4992,5.4997,0,0,0,0,0,0,0,0,0,0,0,0,0,5.4581,5.4586,5.4835,5.4836,5.4838,5.4941,5.4943,5.4944,5.4892,5.4888,5.4885,5.4882,5.4985,5.4991,5.4997,0,0,0,0,0,0,0,0,0,0,0,0,0,5.4689,5.4587,5.4835,5.4824,5.4824,5.4941,5.4943,5.4944,5.4892,5.4888,5.4884,5.488,5.4983,5.499,5.4998,5.513,0,0,5.5023,5.5026,0,0,0,0,0,0,0,0,5.4683,5.4699,5.4824,5.4825,5.4825,5.4899,5.4891,5.5006,5.4893,5.4866,5.4883,5.4878,5.496,5.497,5.4999,5.5135,5.5139,5.5023,5.5028,5.5032,5.5034,0,0,0,0,0,0,0,5.4676,5.4694,5.4877,5.4826,5.4827,5.4812,5.4823,5.4912,5.4935,5.4868,5.4865,5.4878,5.496,5.4991,5.5001,5.5141,5.5023,5.503,5.5035,5.5038,5.5389,5.5394,0,0,0,0,0,0,5.467,5.4688,5.4873,5.488,5.4743,5.482,5.4832,5.4879,5.4934,5.4938,5.4882,5.4876,5.498,5.4991,5.5004,5.5162,5.5032,5.5039,5.5044,5.5385,5.539,5.5395,0,0,0,0,0,0,5.4664,5.4687,5.4869,5.4783,5.4805,5.4829,5.4882,5.4884,5.4915,5.4944,5.4947,5.491,5.4977,5.4993,5.5099,5.5165,5.5043,5.505,5.538,5.5387,5.5393,5.5479,0,0,0,0,0,0,5.4657,5.4685,5.4737,5.4785,5.481,5.4965,5.4886,5.4889,5.493,5.4922,5.4972,5.4976,5.4975,5.5088,5.5107,5.5174,5.5056,5.5374,5.5383,5.5391,5.5471,5.5488,5.5503,0,0,0,0,0,5.4648,5.4756,5.474,5.4762,5.4876,5.4969,5.4983,5.4981,5.4935,5.4986,5.5005,5.4974,5.5154,5.5099,5.5121,5.5191,5.537,5.538,5.539,5.5463,5.5485,5.5503,0,0,0,0,0,0,5.4713,5.4762,5.4745,5.4871,5.4916,5.496,5.5024,5.5004,5.5062,5.5053,5.5046,5.5058,5.5168,5.5189,5.5127,5.532,5.5255,5.527,5.5303,5.5324,5.534,5.5333,5.5063,0,0,0,0,0,5.4742,5.4816,5.4853,5.4961,5.4985,5.5001,5.5041,5.5036,5.5082,5.51,5.5127,5.5171,5.5237,5.5281,5.5344,5.5473,5.5483,5.5531,5.5548,5.5561,5.5574,5.5644,5.5666,5.5429,5.5429,5.5429,0,0,5.4803,5.4838,5.4885,5.4975,5.501,5.5084,5.5017,5.5099,5.5154,5.5112,5.5215,5.5236,5.5284,5.5403,5.5456,5.5424,5.5642,5.5574,5.5584,5.5591,5.5657,5.5679,5.5699,5.5436,5.5435,5.5434,0,0,5.4952,5.4986,5.5081,5.5117,5.517,5.518,5.5203,5.5249,5.5262,5.5366,5.5336,5.54,5.5514,5.5551,5.5584,5.5746,5.572,5.5766,5.5852,5.592,5.5938,5.5955,5.6013,5.6034,5.5779,5.5779,5.578,0,5.502,5.5134,5.5131,5.5216,5.5256,5.5223,5.5317,5.5351,5.5422,5.545,5.5413,5.5557,5.5587,5.5713,5.5753,5.5781,5.5805,5.5761,5.5936,5.5953,5.5968,5.6024,5.6046,5.5785,5.5784,5.5784,5.5783,0,5.5215,5.5294,5.5363,5.5434,5.5482,5.5571,5.558,5.5628,5.5618,5.5631,5.5736,5.5771,5.5841,5.587,5.5861,5.5995,5.5974,5.5937,5.5871,5.5996,5.6049,5.607,5.5793,5.5791,5.5789,5.5788,0,0,5.5409,5.5478,5.5504,5.5536,5.5592,5.5652,5.5738,5.5808,5.585,5.5899,5.5971,5.6068,5.6035,5.6072,5.6066,5.6126,5.6253,5.6081,5.6082,5.6113,5.6403,5.6432,5.6457,5.6235,5.6239,5.6242,5.64,0,5.5563,5.5718,5.5717,5.5859,5.5931,5.5901,5.5976,5.6017,5.6032,5.6093,5.6108,5.6178,5.6128,5.615,5.6208,5.6225,5.6311,5.6214,5.6301,5.6304,5.6292,5.6484,5.6515,5.6662,5.642,5.6423,5.6426,0,5.5764,5.5822,5.5972,5.6018,5.6048,5.6116,5.618,5.624,5.6286,5.6292,5.6334,5.6319,5.6405,5.6336,5.6454,5.6388,5.6423,5.6437,5.6442,5.6451,5.6374,5.6499,5.6708,5.6731,5.6458,5.6455,5.6453,0,5.5892,5.6007,5.6112,5.614,5.6196,5.6245,5.627,5.6312,5.6354,5.6408,5.6435,5.6498,5.6533,5.6582,5.6583,5.6532,5.6703,5.6633,5.6709,5.671,5.6748,5.6746,5.6967,5.6769,5.6768,5.6768,5.6767,0,5.6065,5.6158,5.617,5.6235,5.6338,5.6335,5.6436,5.6456,5.6494,5.656,5.6536,5.6598,5.6596,5.6659,5.666,5.6758,5.6773,5.678,5.6779,5.6783,5.6782,5.6807,5.6797,5.6774,5.6773,5.6771,5.677,0,5.6226,5.6238,5.635,5.6394,5.6407,5.6481,5.6518,5.6578,5.659,5.6674,5.6694,5.6712,5.6785,5.6791,5.6874,5.6875,5.6994,5.6981,5.6979,5.6978,5.7054,5.7047,5.73,5.7333,5.7112,5.7114,5.7116,0,5.6337,5.6408,5.646,5.6504,5.6532,5.6603,5.6646,5.6645,5.669,5.6748,5.6801,5.6872,5.6929,5.7046,5.7065,5.7129,5.7119,5.7203,5.7128,5.713,5.7121,5.7118,5.7125,5.7218,5.722,5.7222,5.7224,0,5.6532,5.6534,5.6598,5.6665,5.6717,5.6769,5.6817,5.6854,5.6858,5.691,5.6986,5.703,5.7116,5.7186,5.7249,5.7272,5.7249,5.7247,5.7268,5.7273,5.727,5.7274,5.702,5.7241,5.724,5.7238,5.7237,5.7237,5.6672,5.6733,5.678,5.6852,5.6889,5.6934,5.6994,5.7013,5.7076,5.7148,5.7143,5.7226,5.7268,5.735,5.7378,5.7442,5.7414,5.7444,5.7452,5.746,5.7469,5.7259,5.7453,5.7453,5.7452,5.7452,5.7451,0,5.6866,5.6895,5.6961,5.703,5.7087,5.7061,5.7113,5.7161,5.7235,5.7278,5.7335,5.7421,5.7489,5.7513,5.7579,5.7625,5.7616,5.7643,5.764,5.7646,5.749,5.7466,5.7649,5.7649,5.7649,5.7649,5.7649,5.7649,5.6974,5.7078,5.7086,5.7207,5.7233,5.7317,5.7349,5.739,5.7424,5.7522,5.7579,5.7595,5.763,5.7698,5.7759,5.7764,5.779,5.7821,5.7822,5.7676,5.7656,5.7638,5.7615,5.7827,5.7827,5.7973,5.7974,5.7975]}]]